Simultaneous Nadir Overpasses (SNOs) Predictions

Prediction of SNOs between NOAA-15 and METOP-C Satellite Orbit:

Table of predicted SNOs for the next 14.0 days since TLE Epoch: 6/22/2024
Index Date (NOAA-15) Time (NOAA-15) Lat,Lon (NOAA-15) SZA (NOAA-15 ) Date (METOP-C) Time (METOP-C) Lat,Lon (METOP-C) SZA (METOP-C ) Distance(km) Time Diff (sec)
1 06/23/2024 16:06:24 -81.04, 156.91 120.39 06/23/2024 16:05:12 -81.04, 156.77 120.43 2.38 72
2 06/23/2024 16:56:52 81.04, -35.85 59.60 06/23/2024 16:55:52 81.05, -35.75 59.59 1.73 60
3 06/23/2024 17:47:24 -81.04, 131.58 120.40 06/23/2024 17:46:33 -81.05, 131.67 120.40 1.95 51
4 06/23/2024 18:37:52 81.05, -61.17 59.60 06/23/2024 18:37:14 81.04, -61.22 59.58 1.10 38
5 06/23/2024 19:28:24 -81.04, 106.26 120.40 06/23/2024 19:27:55 -81.05, 106.20 120.42 1.02 29
6 06/23/2024 20:18:52 81.05, -86.49 59.60 06/23/2024 20:18:35 81.05, -86.33 59.61 2.85 17
7 06/23/2024 21:09:24 -81.05, 80.94 120.40 06/23/2024 21:09:16 -81.06, 81.10 120.38 2.99 8
8 06/23/2024 21:59:52 81.05,-111.81 59.59 06/23/2024 21:59:57 81.05,-111.80 59.59 0.89 5
9 06/23/2024 22:50:24 -81.05, 55.61 120.41 06/23/2024 22:50:38 -81.05, 55.63 120.40 0.36 14
10 06/23/2024 23:40:51 81.04,-136.77 59.61 06/23/2024 23:41:18 81.06,-136.90 59.62 2.91 27
11 06/24/2024 00:31:24 -81.06, 30.29 120.41 06/24/2024 00:32:00 -81.05, 30.16 120.42 2.47 36
12 06/24/2024 01:21:52 81.06,-162.45 59.59 06/24/2024 01:22:40 81.05,-162.37 59.61 1.83 48
13 06/24/2024 02:12:24 -81.06, 4.96 120.41 06/24/2024 02:13:21 -81.05, 5.06 120.38 1.74 57



Historial Predications of SNOs between NOAA-15 and METOP-C
